Hourly Data Report for October 02, 2013

All times are specified in Local Standard Time (LST). Add 1 hour to adjust for Daylight Saving Time where and when it is observed.

MONCTON INTL A
NEW BRUNSWICK

46°06'44.000" N
64°40'43.000" W
70.70 m
8103201
71705
YQM

Download Data

Hourly Data (October 2013)
Hourly Data Report for October 2, 2013
Temp Definition
°C
Dew Point Temp Definition
°C
Rel Hum Definition
%
Wind Dir Definition
10's deg

Wind Spd Definition
km/h
Visibility Definition
km
Stn Press Definition
kPa
Hmdx Definition


Wind Chill Definition


Weather Definition


TIME
00:00 Legend Double Dagger 8.3 7.9 97 20 13 24.1 99.93     LegendNANA
01:00 Legend Double Dagger 7.5 7.2 98 22 12 1.0 99.92     Fog
02:00 Legend Double Dagger 8.4 8.3 99 22 13 0.4 99.88     Fog
03:00 Legend Double Dagger 9.1 9.0 99 23 13 0.4 99.84     Fog
04:00 Legend Double Dagger 8.7 8.6 99 23 14 0.4 99.83     Fog
05:00 Legend Double Dagger 8.9 8.8 99 23 17 0.6 99.82     Fog
06:00 Legend Double Dagger 9.4 9.3 99 21 14 0.2 99.83     Fog
07:00 Legend Double Dagger 10.2 10.1 99 23 14 0.2 99.81     Fog
08:00 Legend Double Dagger 10.7 10.6 99 22 22 0.6 99.81     Fog
09:00 Legend Double Dagger 12.8 11.7 93 23 21 24.1 99.78     LegendNANA
10:00 Legend Double Dagger 16.0 12.8 81 22 23 24.1 99.71     LegendNANA
11:00 Legend Double Dagger 18.5 13.4 72 24 23 24.1 99.64     Mainly Clear
12:00 Legend Double Dagger 20.5 14.7 69 22 26 24.1 99.57     LegendNANA
13:00 Legend Double Dagger 22.2 14.4 61 22 23 24.1 99.45 26   LegendNANA
14:00 Legend Double Dagger 23.1 12.6 51 24 30 24.1 99.36 26   Mainly Clear
15:00 Legend Double Dagger 23.4 12.6 50 25 32 24.1 99.33 26   LegendNANA
16:00 Legend Double Dagger 23.2 13.0 52 25 33 24.1 99.32 26   LegendNANA
17:00 Legend Double Dagger 22.2 13.4 57 25 26 24.1 99.34 25   Mainly Clear
18:00 Legend Double Dagger 20.6 12.9 61 27 23 24.1 99.41     LegendNANA
19:00 Legend Double Dagger 18.2 11.6 65 26 14 24.1 99.46     LegendNANA
20:00 Legend Double Dagger 15.9 12.5 80 22 13 24.1 99.51     Mainly Clear
21:00 Legend Double Dagger 15.0 12.7 86 22 12 24.1 99.58     LegendNANA
22:00 Legend Double Dagger 14.4 11.8 84 23 14 24.1 99.62     LegendNANA
23:00 Legend Double Dagger 13.9 11.1 83 23 18 24.1 99.66     Clear

Notes on Data Quality.

Legend

  • E = Estimated
  • M = Missing
  • NA = Not Available
  • ‡ = Partner data that is not subject to review by the National Climate Archives
Date modified: